Content
SEND FEEDBACK

Daily
Averages
Monthly
Summary
United States of America

NEW YORK - UPPER EAST SIDE, NEW YORK


Home > North America > United States > New York
Elevation: 132 feet     Latitude: 40 47N     Longitude: 073 58W

WEATHER
 
SELECT A DAY
Number of Records: 148,109;   Date Range: 11/1/95 - 7/29/14
 
SHARE

PRINT THIS DATA

[ ← Previous Day ]
WEATHER ALMANAC - APRIL 1, 2013
[ Next Day → ]
[ °C ]   °F
Weather ElementAverageHighLow
Temperature47.9 °F62.1 °F (1:51 pm)37.9 °F (11:51 pm)
Dewpoint37 °F45 °F (12:51 am)10.9 °F (10:51 pm)
Humidity69.6 %96 % (12:51 am)32 % (10:51 pm)
Barometer29.72 in29.91 in (11:51 pm)29.62 in (1:51 pm)
Wind Speed5.9 mph13.8 mph (12:51 pm)
Wind Gust31.1 mph (3:51 pm)
Weather ElementAverage
Visibility7.9 mi
Wind DirectionSE (133.2 °)

Weather ElementTotal
Precipitation---
Heating Degree Days15 (Base 65)
Averaged from 31 records on April 1, 2013
WEATHER CONDITIONS BREAKOUT
WIND DIRECTION BREAKOUT
WEATHER BY HOUR - APRIL 1, 2013
[ °C ]   °F
Local TimeTemperatureDewpointHumidityBarometerVisibilityWind DirectionWind SpeedGust SpeedPrecipitationEventsConditions
12:51 AM46.0 °F45.0 °F96 %29.67 in2.5 miNW (310°)5.8 mphOvercast
1:19 AM46.0 °F44.1 °F93 %29.70 in3.0 miNorthOvercast
1:35 AM46.0 °F44.1 °F93 %29.70 in4.0 miWest (280°)6.9 mphOvercast
1:51 AM46.0 °F44.1 °F93 %29.67 in5.0 miWNW (290°)4.6 mphOvercast
2:34 AM46.0 °F43.0 °F89 %29.71 in8.0 miWSW (240°)8.1 mphOvercast
2:51 AM46.9 °F43.0 °F86 %29.70 in9.0 miCalmOvercast
3:38 AM46.0 °F42.1 °F86 %29.72 in10.0 miWSW (250°)6.9 mph16.1 mphScattered Clouds
3:51 AM46.0 °F42.1 °F86 %29.70 in9.0 miWSW (240°)8.1 mphScattered Clouds
4:51 AM46.0 °F42.1 °F86 %29.70 in9.0 miWSW (250°)6.9 mphPartly Cloudy
5:07 AM46.0 °F42.1 °F86 %29.72 in9.0 miCalmMostly Cloudy
5:30 AM46.0 °F42.1 °F86 %29.73 in8.0 miWSW (240°)4.6 mphMostly Cloudy
5:51 AM46.0 °F43.0 °F89 %29.71 in7.0 miVariable4.6 mphOvercast
6:23 AM46.0 °F42.1 °F86 %29.73 in6.0 miCalmScattered Clouds
6:51 AM45.0 °F42.1 °F90 %29.70 in5.0 miNorthClear
7:51 AM46.0 °F42.1 °F86 %29.70 in5.0 miNorthClear
8:51 AM48.0 °F42.1 °F80 %29.70 in6.0 miWest (270°)5.8 mphHaze
9:51 AM50.0 °F42.1 °F74 %29.69 in6.0 miWSW (240°)9.2 mphHaze
10:51 AM54.0 °F42.1 °F64 %29.68 in7.0 miVariable6.9 mphClear
11:51 AM57.0 °F41.0 °F55 %29.67 in10.0 miVariable5.8 mphPartly Cloudy
12:51 PM60.1 °F39.0 °F46 %29.64 in10.0 miWest (260°)13.8 mphPartly Cloudy
1:51 PM62.1 °F36.0 °F38 %29.62 in10.0 miVariable6.9 mph20.7 mphPartly Cloudy
2:51 PM61.0 °F37.9 °F42 %29.62 in10.0 miVariable6.9 mph18.4 mphPartly Cloudy
3:51 PM57.0 °F34.0 °F42 %29.65 in10.0 miNW (310°)8.1 mph31.1 mphOvercast
4:51 PM46.0 °F37.9 °F73 %29.71 in7.0 miNNW (340°)8.1 mph21.9 mph0.00 inRainLight Rain
5:51 PM45.0 °F34.0 °F65 %29.73 in10.0 miWNW (300°)9.2 mph0.00 inOvercast
6:51 PM46.9 °F32.0 °F56 %29.74 in10.0 miCalmPartly Cloudy
7:51 PM46.0 °F32.0 °F58 %29.76 in10.0 miCalmClear
8:51 PM44.1 °F18.0 °F35 %29.82 in10.0 miVariable6.9 mph17.3 mphClear
9:51 PM41.0 °F14.0 °F33 %29.87 in10.0 miNorthClear
10:51 PM39.0 °F10.9 °F32 %29.89 in10.0 miNorthClear
11:51 PM37.9 °F10.9 °F33 %29.91 in10.0 miNW (310°)9.2 mph25.3 mphClear
Hourly data recorded from KNYC, located miles away from New York - Upper East Side, New York







STORIES FROM OUR PARTNERS